Wetbulb
63.42 63.80 64.61 64.99 65.21 65.87 67.48 67.88 67.53 67.60 67.07 68.49 69.22 67.99 66.83 67.50 67.90 69.22 69.69 69.72 70.15 70.26 70.63 71.73 71.76 72.56 72.32 71.41 71.87 71.85 71.83 72.36 72.41
61.46 62.43 63.71 64.24 65.53 66.34 67.31 68.07 67.99 67.95 67.24 67.52 69.27 70.06 69.56 68.98 68.84 69.74 70.13 71.06 71.97 72.18 73.03 73.92 73.52 72.71 72.35 71.31 73.06 72.46 71.79 70.15 68.19
60.16 61.76 62.87 63.37 64.86 66.27 67.48 68.84 68.94 69.11 69.08 68.21 69.27 70.26 71.22 71.56 71.63 72.06 72.08 72.20 72.08 71.95 71.87 72.17 71.81 71.38 70.84 70.80 71.26 70.13 68.25 65.74 65.06
60.60 60.73 61.98 63.54 64.65 66.30 67.95 69.42 69.43 69.35 69.92 69.74 70.00 70.75 71.68 72.36 72.91 73.75 71.86 71.43 70.89 70.57 69.69 69.72 69.24 68.99 68.88 68.25 66.91 66.48 64.26 63.69 63.16
61.39 61.92 62.21 63.87 65.24 67.32 68.08 69.24 70.44 71.08 70.91 70.61 71.32 72.24 72.69 73.06 72.70 71.10 70.74 69.97 69.29 68.52 67.45 67.49 67.53 67.31 66.46 65.55 64.59 63.92 63.13 62.47 62.39
60.34 61.15 61.67 63.47 65.51 66.81 67.70 68.24 69.30 70.56 71.92 72.10 72.59 72.72 72.24 70.35 69.72 69.59 68.28 67.49 66.91 66.53 65.77 65.10 64.99 65.21 65.19 64.59 64.02 63.59 63.16 63.27 62.80
60.06 61.64 61.92 63.23 64.65 66.02 67.33 68.18 68.56 70.17 71.48 72.58 72.16 71.32 70.19 69.07 68.39 67.53 66.53 65.70 65.26 64.19 63.75 62.99 62.97 63.17 63.31 63.54 63.41 63.36 62.59 61.85 61.43
60.19 60.70 61.00 62.18 64.04 65.34 66.28 67.56 69.34 71.16 71.59 71.56 70.79 69.95 68.77 67.37 66.43 66.01 64.79 64.01 63.46 62.80 62.11 61.71 62.34 62.29 62.41 62.18 62.44 62.18 61.06 60.04 59.58
59.93 61.12 62.46 62.90 64.31 65.22 65.97 68.49 70.12 71.17 70.90 69.62 68.99 67.96 66.57 66.54 65.88 64.99 63.54 62.94 61.87 61.31 60.63 60.84 61.70 61.75 62.21 62.27 62.53 63.29 62.16 59.78 58.61
60.54 62.11 63.18 63.29 64.40 65.34 66.35 69.33 70.60 70.16 69.62 68.65 67.40 66.32 66.21 65.83 65.25 63.70 62.66 61.71 60.59 59.67 59.18 59.69 60.18 60.70 60.99 61.08 62.79 62.73 61.14 59.16 55.90
61.21 62.79 63.48 64.26 64.82 65.64 68.60 70.21 69.60 68.41 67.80 66.91 66.12 65.31 65.09 64.99 64.21 62.48 61.66 60.77 59.33 58.53 58.54 58.66 58.86 59.29 59.55 59.16 60.40 59.06 57.84 55.92 53.21
62.92 63.50 64.35 64.74 65.99 68.41 69.86 69.04 67.98 67.15 66.21 65.92 65.45 64.39 64.25 64.43 63.53 61.79 60.99 60.01 58.61 58.51 57.86 56.98 56.62 57.91 58.69 57.40 57.89 57.00 55.99 53.80 53.18
63.42 64.69 64.51 65.98 69.14 69.74 68.56 67.71 67.24 66.41 65.56 65.00 64.61 64.15 64.12 64.06 62.92 61.31 60.56 59.71 58.89 58.61 57.85 56.23 55.13 55.13 57.64 58.07 57.52 56.66 55.30 54.00 53.08
63.74 64.36 67.13 70.47 69.86 68.61 67.98 67.45 67.26 65.81 65.18 64.98 65.10 64.52 64.17 63.43 62.09 61.02 60.30 59.83 59.09 57.55 55.19 53.77 53.79 53.62 54.44 58.84 57.97 58.14 55.68 53.74 54.43
66.02 68.70 70.10 70.04 68.95 67.89 67.80 67.73 67.50 65.45 65.40 65.32 64.89 64.33 63.58 62.84 61.70 61.54 61.09 59.78 57.77 54.77 51.92 52.01 51.51 52.56 53.26 56.18 58.79 56.82 55.82 53.92 53.64
67.00 69.60 70.05 69.86 68.63 67.31 67.62 67.93 67.86 65.92 64.97 65.59 64.47 63.68 62.84 62.48 62.39 62.16 60.76 58.98 55.76 50.56 50.83 50.96 50.68 51.91 53.46 54.51 55.55 55.17 55.12 54.94 54.69
68.76 70.22 69.48 69.35 67.69 67.02 66.95 67.80 67.83 67.44 65.66 65.48 64.27 62.94 62.61 62.61 62.18 60.60 59.94 58.70 55.71 50.65 50.07 50.39 50.66 51.07 51.61 51.68 52.73 52.69 52.37 52.39 52.11
69.81 70.31 69.96 68.71 67.71 67.26 67.27 67.82 67.06 65.68 65.77 65.10 63.57 62.92 62.52 62.60 61.73 60.77 59.09 57.87 54.71 51.52 52.25 52.01 51.20 51.52 51.88 51.24 51.95 52.65 49.90 49.67 51.21
70.34 70.30 69.88 68.52 68.32 67.97 67.67 67.40 65.75 65.81 65.75 64.86 63.43 62.73 62.52 62.20 61.31 60.23 58.72 55.51 52.92 49.13 50.94 49.27 48.51 47.88 50.84 52.76 50.43 47.92 45.52 43.98 44.67
68.62 70.82 69.76 68.94 68.40 68.54 67.89 67.08 65.95 65.95 65.70 64.76 63.52 62.86 62.85 62.13 61.07 60.36 58.17 56.87 55.11 52.45 50.90 47.59 47.43 47.29 46.54 48.22 49.28 44.55 43.29 42.87 43.57
MSLP
1008.62 1009.73 1010.69 1011.51 1012.29 1012.92 1013.63 1014.29 1014.93 1015.53 1016.53 1016.76 1017.55 1017.62 1017.90 1018.02 1018.32 1018.77 1018.96 1019.14 1019.01 1018.97 1018.88 1018.41 1018.19 1018.15 1018.27 1018.40 1018.04 1018.00 1018.10 1018.39 1018.72
1008.38 1009.34 1010.17 1010.86 1011.60 1012.17 1012.89 1013.77 1014.36 1014.89 1015.69 1016.24 1016.74 1017.08 1017.77 1017.86 1018.13 1018.56 1018.74 1018.60 1018.53 1018.29 1018.20 1018.06 1017.85 1017.83 1018.06 1018.00 1018.05 1018.09 1018.29 1018.88 1019.20
1008.34 1009.05 1009.87 1010.51 1010.97 1011.55 1012.23 1013.11 1013.85 1014.41 1014.87 1015.39 1015.98 1016.47 1016.98 1017.25 1017.93 1018.02 1018.24 1018.30 1018.14 1018.20 1018.30 1018.05 1018.26 1018.24 1018.29 1018.50 1018.49 1018.60 1018.95 1019.31 1019.50
1007.81 1008.71 1009.44 1010.01 1010.49 1011.11 1011.73 1012.69 1013.35 1013.84 1014.38 1014.93 1015.47 1016.03 1016.40 1016.80 1017.34 1017.50 1017.80 1018.16 1018.31 1018.46 1018.48 1018.54 1018.67 1018.73 1018.70 1018.96 1019.10 1019.28 1019.35 1019.84 1020.07
1007.38 1008.01 1008.87 1009.58 1010.18 1010.83 1011.52 1012.24 1013.02 1013.47 1014.06 1014.46 1014.99 1015.63 1016.08 1016.51 1017.16 1017.61 1017.75 1018.20 1018.66 1018.83 1018.90 1018.89 1018.98 1018.98 1019.24 1019.49 1019.60 1019.77 1020.05 1020.35 1020.65
1007.26 1008.12 1008.85 1009.70 1010.27 1010.78 1011.27 1011.90 1012.61 1013.16 1013.71 1014.23 1014.70 1015.45 1015.97 1016.59 1017.33 1017.60 1017.97 1018.42 1018.71 1019.07 1019.19 1019.35 1019.50 1019.58 1019.80 1019.95 1020.28 1020.54 1020.89 1021.05 1021.27
1007.02 1007.74 1008.39 1009.26 1010.03 1010.55 1011.03 1011.57 1012.20 1012.98 1013.82 1014.16 1014.69 1015.47 1016.17 1016.80 1017.22 1017.74 1018.29 1018.78 1019.21 1019.39 1019.65 1019.90 1020.10 1020.24 1020.39 1020.62 1020.91 1021.19 1021.49 1021.62 1021.72
1007.23 1007.65 1008.30 1008.78 1009.60 1010.17 1010.68 1011.39 1012.08 1012.74 1013.54 1014.25 1014.88 1015.64 1016.28 1016.81 1017.43 1018.02 1018.50 1019.02 1019.48 1019.83 1020.17 1020.47 1020.60 1020.76 1020.92 1021.00 1021.15 1021.52 1021.76 1022.07 1022.27
1006.68 1007.14 1007.31 1007.99 1008.96 1009.61 1010.39 1011.00 1011.73 1012.54 1013.48 1014.30 1014.86 1015.58 1016.24 1016.88 1017.52 1018.14 1018.76 1019.37 1019.92 1020.27 1020.70 1020.90 1020.98 1021.20 1021.33 1021.52 1021.73 1021.77 1022.04 1022.36 1022.69
1005.59 1006.14 1006.62 1007.24 1008.05 1008.92 1009.76 1010.55 1011.40 1012.43 1013.26 1014.10 1014.86 1015.61 1016.40 1017.02 1017.73 1018.42 1019.13 1019.66 1020.19 1020.66 1021.06 1021.35 1021.60 1021.75 1021.76 1022.01 1022.13 1022.09 1022.34 1022.70 1023.17
1004.40 1005.33 1005.68 1006.47 1007.48 1008.43 1009.50 1010.36 1011.54 1012.61 1013.40 1014.08 1014.94 1015.80 1016.46 1017.22 1018.01 1018.78 1019.41 1019.96 1020.56 1021.17 1021.59 1021.79 1021.96 1022.16 1022.27 1022.41 1022.60 1022.61 1022.82 1023.15 1023.52
1002.75 1003.61 1004.25 1005.10 1006.68 1007.76 1009.15 1010.30 1011.45 1012.46 1013.46 1014.23 1014.99 1015.72 1016.44 1017.19 1017.92 1018.62 1019.42 1020.18 1020.92 1021.44 1021.82 1022.09 1022.35 1022.52 1022.68 1022.83 1023.16 1023.15 1023.28 1023.56 1023.87
1002.50 1002.84 1003.97 1005.00 1006.48 1007.81 1009.07 1010.36 1011.15 1012.21 1013.22 1014.03 1014.71 1015.43 1016.26 1017.10 1017.92 1018.62 1019.50 1020.27 1021.03 1021.55 1021.86 1022.27 1022.63 1022.92 1023.04 1023.13 1023.39 1023.54 1023.72 1023.93 1024.22
1001.70 1002.89 1003.85 1004.92 1006.38 1007.36 1008.60 1009.96 1010.79 1012.02 1012.92 1013.53 1014.35 1015.26 1016.17 1017.12 1018.02 1018.77 1019.58 1020.40 1021.07 1021.66 1022.17 1022.63 1023.12 1023.46 1023.72 1023.74 1023.69 1023.84 1024.02 1024.21 1024.27
1001.88 1002.84 1004.31 1005.07 1006.50 1007.56 1008.62 1009.60 1010.29 1011.50 1012.81 1013.46 1014.25 1015.27 1016.18 1017.17 1018.09 1018.82 1019.68 1020.43 1021.30 1021.97 1022.52 1023.12 1023.60 1023.86 1023.94 1023.91 1023.77 1023.82 1023.99 1024.16 1024.19
1001.61 1002.52 1003.32 1004.53 1005.84 1007.38 1008.60 1009.26 1009.89 1010.92 1012.31 1013.26 1014.13 1015.25 1016.27 1017.19 1018.09 1018.96 1019.80 1020.69 1021.51 1022.31 1022.83 1023.10 1023.52 1023.69 1023.78 1023.98 1024.06 1024.15 1024.27 1024.40 1024.51
1001.38 1002.50 1003.48 1004.48 1005.67 1007.07 1008.16 1009.06 1009.75 1010.52 1011.90 1013.00 1013.94 1015.18 1016.29 1017.12 1018.01 1018.99 1019.89 1020.63 1021.29 1021.96 1022.54 1023.05 1023.26 1023.52 1023.86 1024.17 1024.43 1024.49 1024.62 1024.79 1024.78
1000.67 1001.94 1003.18 1004.12 1005.04 1006.05 1007.36 1008.54 1009.47 1010.53 1011.45 1012.51 1013.81 1015.00 1016.12 1017.12 1017.99 1018.69 1019.61 1020.31 1020.96 1021.39 1021.83 1022.00 1022.52 1023.11 1023.49 1023.91 1024.32 1024.54 1024.73 1024.92 1024.99
1000.16 1001.43 1002.74 1003.99 1005.16 1005.80 1007.10 1008.27 1009.24 1010.17 1010.98 1011.83 1013.11 1014.46 1015.65 1016.58 1017.44 1018.28 1019.21 1020.07 1020.94 1021.20 1021.45 1021.99 1022.07 1022.51 1022.78 1023.42 1023.52 1023.99 1024.50 1024.81 1024.92
999.87 1000.94 1001.81 1002.63 1003.62 1004.63 1006.10 1007.28 1008.24 1009.18 1010.22 1011.21 1012.24 1013.26 1014.51 1015.82 1016.76 1017.59 1018.49 1019.40 1020.19 1021.13 1022.01 1022.19 1022.27 1022.49 1022.85 1023.03 1023.35 1023.95 1024.29 1024.55 1024.84
Wind_Speed
9 14 13 15 15 12 11 12 11 10 13 9 10 10 10 7 5 2 3 3 5 5 5 6 4 3 2 2 2 1 1 3 4
12 12 12 13 12 12 11 12 13 13 13 12 13 12 9 8 8 6 8 10 7 6 4 1 2 2 3 2 3 6 7 5 6
9 9 9 8 10 12 11 11 10 10 11 12 11 11 9 8 7 8 8 5 2 2 3 4 4 6 6 6 7 7 7 6 5
13 13 12 10 8 9 10 9 10 10 9 10 8 9 8 7 5 5 4 4 4 4 5 5 5 5 7 8 8 7 9 7 6
10 12 13 11 10 10 10 10 9 10 9 8 7 7 6 6 5 5 4 5 5 5 7 6 6 7 9 8 8 8 8 9 9
8 10 10 8 8 10 10 9 9 8 7 8 8 7 6 6 6 6 6 6 6 6 7 7 7 7 8 9 8 9 8 8 9
11 12 14 11 8 9 9 9 10 9 8 8 7 8 8 7 7 7 7 7 6 7 6 7 7 6 7 7 7 8 8 8 8
8 10 11 13 11 10 9 8 8 8 9 9 10 9 8 8 8 8 8 7 7 7 7 6 6 8 7 7 7 6 8 8 7
12 14 15 13 10 10 11 11 10 10 11 11 11 11 10 9 9 9 8 8 7 7 6 6 7 6 7 8 6 12 13 9 7
15 16 14 16 15 14 12 13 13 13 13 12 10 11 10 10 9 9 8 8 7 7 6 5 6 6 7 6 6 12 13 13 6
15 13 14 12 12 10 9 10 11 13 12 11 12 11 11 10 10 9 9 8 8 6 4 6 5 5 5 6 5 12 13 13 7
20 19 17 14 12 13 13 14 14 14 12 12 12 12 12 12 11 11 10 9 8 5 5 4 3 3 5 6 5 11 12 10 6
13 14 8 14 13 13 14 14 15 15 14 13 13 13 12 11 11 11 10 9 8 3 4 4 4 4 3 4 5 8 10 7 4
12 11 14 16 15 16 15 15 16 14 14 14 12 12 13 11 10 10 9 8 4 5 5 5 4 4 1 3 3 5 8 6 3
14 17 15 14 14 13 14 15 15 15 13 12 14 14 13 12 11 9 8 10 6 6 6 6 4 4 4 3 3 5 5 7 4
17 18 17 15 15 15 13 14 14 16 13 15 15 14 13 12 11 10 9 9 8 6 5 5 4 4 4 4 3 1 2 5 4
14 15 15 14 17 16 16 14 13 13 17 15 16 15 14 12 12 11 9 7 7 7 6 5 5 5 4 3 3 2 2 2 1
16 16 15 16 17 16 17 15 13 15 16 17 15 14 13 13 10 11 9 7 6 7 5 8 9 6 6 7 5 4 4 5 3
16 18 15 14 13 14 15 15 14 16 17 18 17 15 14 13 11 9 8 8 5 5 5 9 8 8 8 4 4 10 11 9 7
16 15 17 19 21 18 19 18 18 17 18 18 18 17 16 13 11 11 10 9 8 8 1 1 7 8 9 9 9 11 11 10 8
Wind_Direction
153 167 169 175 177 180 170 174 181 166 163 174 169 189 205 211 233 234 264 243 240 246 244 258 208 225 179 225 288 291 83 63 61
163 163 173 171 168 174 168 174 184 180 167 179 184 193 200 206 213 207 219 244 240 251 220 248 29 73 113 124 91 89 86 71 69
158 157 157 168 172 171 174 181 179 177 175 185 185 194 190 199 182 203 209 217 213 77 89 81 84 81 84 89 86 87 85 76 59
162 164 165 174 175 169 165 153 170 177 169 170 174 172 182 194 178 204 167 122 96 99 85 86 87 90 86 79 78 76 85 78 73
166 163 167 171 166 158 152 157 158 173 165 171 169 163 161 174 132 137 116 105 113 99 93 79 84 81 83 87 82 74 81 84 75
154 145 139 145 148 165 163 162 161 162 160 157 157 145 139 132 135 130 117 112 93 94 92 76 71 82 87 87 87 88 80 84 84
159 162 160 162 163 173 170 168 162 149 144 147 138 130 134 139 133 126 124 111 98 92 85 90 85 82 91 94 97 100 97 91 83
149 155 161 173 179 174 167 150 141 137 140 140 142 139 139 136 124 117 112 106 101 99 94 94 99 101 95 96 90 94 89 85 87
169 179 183 174 178 166 167 161 155 149 146 150 143 141 139 132 125 123 122 113 109 103 99 99 98 92 94 86 93 103 104 102 93
185 186 184 179 177 179 168 165 157 160 153 140 135 134 137 136 132 127 125 117 115 116 111 108 96 94 95 92 96 98 101 103 94
188 192 186 180 174 159 148 140 133 134 138 136 135 136 138 136 136 132 128 127 125 112 117 119 114 107 102 102 95 108 111 108 94
187 183 197 176 167 150 140 141 139 137 137 137 142 148 147 146 145 140 142 138 135 124 127 118 117 131 116 110 103 117 111 106 97
202 199 164 149 143 133 133 144 143 143 147 151 158 155 149 146 146 145 146 143 139 126 126 120 125 122 162 157 129 122 116 101 97
179 164 155 138 148 150 153 151 147 149 155 165 152 142 142 143 143 139 138 132 122 133 126 115 112 113 123 182 132 127 125 134 129
148 145 142 143 144 149 151 156 152 148 161 146 141 143 145 144 140 142 139 137 123 125 125 121 124 129 117 130 143 149 164 157 144
171 169 159 155 150 146 156 162 161 151 151 150 144 145 148 144 141 140 143 140 139 133 136 139 143 146 140 156 172 128 98 144 120
160 160 159 153 145 155 163 167 160 147 151 150 147 146 149 149 149 146 146 145 153 147 149 151 157 156 150 150 154 158 150 127 70
165 160 158 158 164 163 165 160 152 148 150 150 148 147 150 156 154 159 153 148 163 165 179 174 167 180 163 158 179 205 179 167 176
164 162 155 161 165 153 156 158 150 155 157 156 151 152 160 166 164 158 155 153 138 58 172 190 181 166 177 186 125 158 181 187 181
174 166 164 167 172 164 158 163 162 163 162 162 162 163 162 165 166 163 161 168 169 175 125 140 218 201 193 175 171 170 176 173 165